Satellite: NANOSALD
Catalog number: 37361
Epoch time:      11172.19187209
Element set:    0246
Inclination:      071.9561 deg
RA of node:       024.7678 deg
Eccentricity:    0.0045308
Arg of perigee:   117.6218 deg
Mean anomaly:     242.4226 deg
Mean motion:   15.01675081 rev/day
Decay rate:     6.3785e-04 rev/day^2
Epoch rev:           02272
Checksum:              295

Satellite: FO-70
Catalog number: 37380
Epoch time:      11174.16957606
Element set:    0197
Inclination:      071.9736 deg
RA of node:       026.1917 deg
Eccentricity:    0.0019122
Arg of perigee:   267.1147 deg
Mean anomaly:     092.7826 deg
Mean motion:   14.76367501 rev/day
Decay rate:       1.74e-06 rev/day^2
Epoch rev:           03174
Checksum:              312

/EX
SB KEPS @ AMSAT  $ORB11174.W
Orbital Elements  11174.WEATHER

HR AMSAT ORBITAL ELEMENTS FOR WEATHER SATELLITES
FROM WA5QGD FORT WORTH,TX June 23, 2011
Send Subscribe/unsubscribe to KEPS at http://www.amsat.org/mailman/listinfo/kep
BID: ORB11174.W
TO ALL RADIO AMATEURS BT

Satellite: NOAA-10
Catalog number: 16969
Epoch time:      11173.67717469
Element set:    0545
Inclination:      098.6184 deg
RA of node:       203.3893 deg
Eccentricity:    0.0011682
Arg of perigee:   206.0557 deg
Mean anomaly:     154.0033 deg
Mean motion:   14.27465908 rev/day
Decay rate:        4.6e-07 rev/day^2
Epoch rev:           28843
Checksum:              321

Satellite: NOAA-11
Catalog number: 19531
Epoch time:      11173.78697994
Element set:    0542
Inclination:      098.7514 deg
RA of node:       261.1448 deg
Eccentricity:    0.0011421
Arg of perigee:   168.3511 deg
Mean anomaly:     191.7928 deg
Mean motion:   14.14919442 rev/day
Decay rate:       2.24e-06 rev/day^2
Epoch rev:           17354
Checksum:              312

Satellite: NOAA-12
Catalog number: 21263
Epoch time:      11173.98172254
Element set:    0054
Inclination:      098.7477 deg
RA of node:       191.8163 deg
Eccentricity:    0.0012474
Arg of perigee:   165.9556 deg
Mean anomaly:     194.1973 deg
Mean motion:   14.25719806 rev/day
Decay rate:        3.3e-07 rev/day^2
Epoch rev:           04523
Checksum:              311

Satellite: MET-3/5
Catalog number: 21655
Epoch time:      11173.83156228
Element set:    0141
Inclination:      082.5572 deg
RA of node:       046.7873 deg
Eccentricity:    0.0014110
Arg of perigee:   137.9432 deg
Mean anomaly:     222.2773 deg
Mean motion:   13.17031602 rev/day
Decay rate:        5.1e-07 rev/day^2
Epoch rev:           95446
Checksum:              275

Satellite: MET-2/21
Catalog number: 22782
Epoch time:      11173.82456501
Element set:    0129
Inclination:      082.5492 deg
RA of node:       318.4038 deg
Eccentricity:    0.0024094
Arg of perigee:   083.6857 deg
Mean anomaly:     276.7061 deg
Mean motion:   13.83659406 rev/day
Decay rate:        9.2e-07 rev/day^2
Epoch rev:           89933
Checksum:              323

Satellite: OKEAN-4
Catalog number: 23317
Epoch time:      11173.96670442
Element set:    0594
Inclination:      082.5398 deg
RA of node:       007.7416 deg
Eccentricity:    0.0023779
Arg of perigee:   098.5484 deg
Mean anomaly:     261.8432 deg
Mean motion:   14.83090400 rev/day
Decay rate:       3.10e-06 rev/day^2
Epoch rev:           90140
Checksum:              298

Satellite: NOAA-14
Catalog number: 23455
Epoch time:      11173.90954552
Element set:    0540
Inclination:      098.8523 deg
RA of node:       256.4885 deg
Eccentricity:    0.0008528
Arg of perigee:   264.8119 deg
Mean anomaly:     095.2080 deg
Mean motion:   14.13823015 rev/day
Decay rate:        4.6e-07 rev/day^2
Epoch rev:           84988
Checksum:              322

Satellite: NOAA-15
Catalog number: 25338
Epoch time:      11173.92309387
Element set:    0860
Inclination:      098.6539 deg
RA of node:       159.9858 deg
Eccentricity:    0.0011692
Arg of perigee:   076.9272 deg
Mean anomaly:     283.3226 deg
Mean motion:   14.24925921 rev/day
Decay rate:       2.41e-06 rev/day^2
Epoch rev:           68154
Checksum:              338

Satellite: RESURS
Catalog number: 25394
Epoch time:      11173.93842329
Element set:    0838
Inclination:      098.2983 deg
RA of node:       176.6434 deg
Eccentricity:    0.0000735
Arg of perigee:   169.3339 deg
Mean anomaly:     190.7856 deg
Mean motion:   14.24234835 rev/day
Decay rate:       -3.3e-07 rev/day^2
Epoch rev:           67312
Checksum:              322

Satellite: FENGYUN1
Catalog number: 25730
Epoch time:      11173.92474677
Element set:    0369
Inclination:      098.8169 deg
RA of node:       134.9942 deg
Eccentricity:    0.0023046
Arg of perigee:   301.4798 deg
Mean anomaly:     058.4118 deg
Mean motion:   14.08645122 rev/day
Decay rate:       9.13e-06 rev/day^2
Epoch rev:           62387
Checksum:              323

Satellite: OKEAN-0
Catalog number: 25860
Epoch time:      11173.93268081
Element set:    0348
Inclination:      097.8854 deg
RA of node:       140.2197 deg
Eccentricity:    0.0001258
Arg of perigee:   038.1983 deg
Mean anomaly:     321.9314 deg
Mean motion:   14.73795584 rev/day
Decay rate:       1.13e-06 rev/day^2
Epoch rev:           64150
Checksum:              306

